Date String (YYYY-MM-DD hh:mm:ss) UTC,Instrument flags,Ambient pressure (hPa),Sample flow (lpm),Bypass flow (lpm),Sample temperature (°C),Ambient temperature (°C),ASC tube jacket temperature (°C),LED temperature (°C),Box temperature (°C),Sample RH (%),Span deviation,Mass concentration (μg/m³),Mass concentration (μg/m³),Mass concentration (μg/m³)
DateTimeUTC,F1_M11,P_M11,Q1_M11,Q2_M11,T1_M11,T2_M11,T3_M11,T4_M11,T5_M11,U1_M11,ZSPAN_M11,X0_M11,X2_M11,X1_M11
2022-12-23 08:00:00,,0829.9,5.01,0.00,21.4,19.9,00.0,30.3,22.7,02.4,0000.0,0008.00,0004.37,0003.97
2022-12-23 08:01:00,,0829.9,5.02,0.00,21.4,20.7,00.0,30.3,22.9,02.4,0000.0,0007.98,0004.37,0003.98
2022-12-23 08:02:00,,0829.9,4.96,0.00,21.5,21.6,00.0,30.3,23.2,02.4,0000.0,0007.76,0004.34,0003.96
2022-12-23 08:03:00,,0830.0,5.02,0.00,21.6,22.2,00.0,30.3,23.3,02.4,0000.2,0007.75,0004.35,0003.96
2022-12-23 08:04:00,,0830.0,4.96,0.00,21.6,21.6,00.0,30.3,23.3,02.4,0000.7,0007.92,0004.40,0003.97
2022-12-23 08:05:00,,0829.9,5.03,0.00,21.6,20.9,00.0,30.4,23.1,02.4,0000.7,0007.90,0004.40,0003.97
2022-12-23 08:06:00,,0829.9,5.02,0.00,21.5,20.2,00.0,30.3,22.9,02.4,0000.5,0008.38,0004.41,0003.97
2022-12-23 08:07:00,,0830.0,4.96,0.00,21.4,20.0,00.0,30.3,22.8,02.4,0000.6,0008.75,0004.43,0003.97
2022-12-23 08:08:00,,0830.0,5.03,0.00,21.5,20.8,00.0,30.3,23.0,02.4,0001.0,0008.69,0004.42,0003.96
2022-12-23 08:09:00,,0830.1,5.01,0.00,21.6,21.7,00.0,30.3,23.3,02.3,0001.1,0008.64,0004.39,0003.96
2022-12-23 08:10:00,,0830.1,4.98,0.00,21.7,22.2,00.0,30.3,23.4,02.3,0000.9,0008.64,0004.39,0003.95
2022-12-23 08:11:00,,0830.1,4.99,0.00,21.7,21.7,00.0,30.4,23.4,02.3,0001.1,0008.60,0004.38,0003.95
2022-12-23 08:12:00,,0830.1,5.00,0.00,21.6,21.0,00.0,30.4,23.2,02.3,0001.3,0008.58,0004.37,0003.95
2022-12-23 08:13:00,,0830.1,5.02,0.00,21.5,20.3,00.0,30.4,23.0,02.3,0000.9,0008.65,0004.38,0003.95
2022-12-23 08:14:00,,0830.1,5.00,0.00,21.5,20.2,00.0,30.3,23.0,02.3,0001.0,0008.40,0004.39,0003.94
2022-12-23 08:15:00,,0830.1,4.96,0.00,21.6,21.1,00.0,30.3,23.2,02.3,0000.9,0008.30,0004.36,0003.93
2022-12-23 08:16:00,,0830.2,5.03,0.00,21.7,21.9,00.0,30.3,23.4,02.3,0000.9,0008.40,0004.36,0003.93
2022-12-23 08:17:00,,0830.3,4.97,0.00,21.8,22.4,00.0,30.4,23.6,02.3,0001.2,0008.20,0004.38,0003.92
2022-12-23 08:18:00,,0830.2,5.01,0.00,21.8,21.8,00.0,30.4,23.5,02.3,0001.4,0007.71,0004.37,0003.92
2022-12-23 08:19:00,,0830.0,4.97,0.00,21.7,21.1,00.0,30.4,23.3,02.3,0001.5,0008.53,0004.37,0003.92
2022-12-23 08:20:00,,0830.1,5.01,0.00,21.7,20.5,00.0,30.4,23.1,02.3,0001.2,0008.56,0004.37,0003.93
2022-12-23 08:21:00,,0830.1,5.02,0.00,21.6,20.0,00.0,30.4,23.0,02.3,0000.6,0008.59,0004.37,0003.93
2022-12-23 08:22:00,,0830.1,4.98,0.00,21.6,20.6,00.0,30.4,23.1,02.3,0000.5,0008.71,0004.38,0003.93
2022-12-23 08:23:00,,0830.1,5.00,0.00,21.7,21.6,00.0,30.4,23.3,02.3,0000.5,0008.76,0004.39,0003.93
2022-12-23 08:24:00,,0830.1,5.00,0.00,21.8,22.3,00.0,30.4,23.6,02.3,0001.2,0008.72,0004.38,0003.93
2022-12-23 08:25:00,,0830.2,4.99,0.00,21.9,22.1,00.0,30.4,23.6,02.3,0001.5,0008.66,0004.37,0003.93
2022-12-23 08:26:00,,0830.3,5.03,0.00,21.8,21.3,00.0,30.5,23.5,02.3,0001.3,0008.64,0004.36,0003.93
2022-12-23 08:27:00,,0830.3,4.96,0.00,21.7,20.7,00.0,30.5,23.3,02.3,0001.5,0008.57,0004.39,0003.93
2022-12-23 08:28:00,,0830.4,5.00,0.00,21.7,20.0,00.0,30.5,23.1,02.3,0001.2,0008.53,0004.39,0003.94
2022-12-23 08:29:00,,0830.3,5.01,0.00,21.6,20.0,00.0,30.5,23.0,02.3,0001.3,0008.49,0004.39,0003.96
2022-12-23 08:30:00,,0830.3,5.01,0.00,21.6,21.0,00.0,30.4,23.2,02.3,0001.3,0007.88,0004.42,0003.98
2022-12-23 08:31:00,,0830.3,4.96,0.00,21.7,21.9,00.0,30.4,23.5,02.3,0001.9,0007.75,0004.44,0003.98
2022-12-23 08:32:00,,0830.3,5.02,0.00,21.8,22.2,00.0,30.4,23.6,02.3,0002.5,0007.78,0004.45,0003.99
2022-12-23 08:33:00,,0830.3,4.97,0.00,21.8,21.2,00.0,30.5,23.4,02.3,0002.1,0007.74,0004.46,0004.01
2022-12-23 08:34:00,,0830.3,5.01,0.00,21.7,20.1,00.0,30.5,23.1,02.3,0001.8,0007.85,0004.50,0004.04
2022-12-23 08:35:00,,0830.4,5.02,0.00,21.5,19.3,00.0,30.5,22.8,02.4,0001.1,0007.85,0004.53,0004.09
2022-12-23 08:36:00,,0830.4,5.02,0.00,21.4,19.4,00.0,30.4,22.7,02.4,0000.7,0007.92,0004.59,0004.14
2022-12-23 08:37:00,,0830.2,4.98,0.00,21.5,20.6,00.0,30.3,23.0,02.4,0001.1,0007.97,0004.63,0004.19
2022-12-23 08:38:00,,0830.2,4.99,0.00,21.6,21.5,00.0,30.3,23.2,02.4,0000.6,0007.99,0004.66,0004.24
2022-12-23 08:39:00,,0830.3,5.02,0.00,21.7,21.9,00.0,30.4,23.4,02.3,0001.3,0008.02,0004.69,0004.26
2022-12-23 08:40:00,,0830.2,4.96,0.00,21.6,21.2,00.0,30.4,23.2,02.3,0001.8,0008.07,0004.72,0004.28
2022-12-23 08:41:00,,0830.3,5.03,0.00,21.5,20.2,00.0,30.4,23.0,02.4,0001.7,0008.73,0004.72,0004.29
2022-12-23 08:42:00,,0830.5,5.02,0.00,21.4,19.5,00.0,30.4,22.7,02.4,0001.4,0008.72,0004.73,0004.33
2022-12-23 08:43:00,,0830.3,4.97,0.00,21.4,20.3,00.0,30.3,22.8,02.4,0001.6,0009.19,0004.77,0004.38
2022-12-23 08:44:00,,0830.3,5.00,0.00,21.5,21.3,00.0,30.3,23.1,02.4,0001.8,0009.19,0004.79,0004.40
2022-12-23 08:45:00,,0830.4,5.02,0.00,21.6,21.9,00.0,30.3,23.3,02.3,0001.7,0009.08,0004.78,0004.41
2022-12-23 08:46:00,,0830.4,4.96,0.00,21.6,21.0,00.0,30.3,23.0,02.3,0001.5,0009.12,0004.81,0004.42
2022-12-23 08:47:00,,0830.5,5.03,0.00,21.4,19.5,00.0,30.3,22.5,02.4,0001.6,0009.18,0004.86,0004.45
2022-12-23 08:48:00,,0830.4,5.02,0.00,21.1,18.7,00.0,30.2,22.1,02.4,0002.1,0009.28,0004.92,0004.50
2022-12-23 08:49:00,,0830.4,4.96,0.00,21.1,19.7,00.0,30.1,22.3,02.4,0002.5,0009.23,0004.93,0004.52
2022-12-23 08:50:00,,0830.3,5.00,0.00,21.2,20.6,00.0,30.1,22.7,02.4,0002.2,0009.23,0004.93,0004.53
2022-12-23 08:51:00,,0830.4,5.01,0.00,21.3,21.3,00.0,30.1,22.9,02.4,0001.6,0009.27,0004.94,0004.55
2022-12-23 08:52:00,,0830.4,4.98,0.00,21.4,21.7,00.0,30.1,23.1,02.4,0001.7,0009.07,0004.97,0004.58
2022-12-23 08:53:00,,0830.4,4.98,0.00,21.5,22.0,00.0,30.1,23.2,02.4,0001.6,0009.33,0005.01,0004.58
2022-12-23 08:54:00,,0830.4,5.02,0.00,21.6,22.2,00.0,30.1,23.4,02.4,0001.4,0009.17,0005.04,0004.60
2022-12-23 08:55:00,,0830.5,4.97,0.00,21.7,22.0,00.0,30.2,23.3,02.4,0001.5,0009.24,0005.07,0004.61
2022-12-23 08:56:00,,0830.4,5.04,0.00,21.5,20.4,00.0,30.2,22.8,02.4,0001.9,0009.25,0005.08,0004.62
2022-12-23 08:57:00,,0830.4,5.02,0.00,21.3,19.1,00.0,30.2,22.3,02.4,0002.2,0009.36,0005.09,0004.63
2022-12-23 08:58:00,,0830.3,4.99,0.00,21.1,19.2,00.0,30.2,22.3,02.4,0002.4,0009.49,0005.04,0004.59
2022-12-23 08:59:00,,0830.4,4.96,0.00,21.2,20.2,00.0,30.1,22.6,02.4,0000.9,0009.46,0005.02,0004.57
